Regional Weather Roundup
Issued by NWS

Home | Current Version | Previous Version | Graphics & Text | Print | Product List | Glossary On
Versions: 1 2 3 4 5 6 7 8 9 10 11 12 13 14 15 16 17 18 19 20 21 22 23 24 25 26 27 28 29 30 31 32 33 34 35 36 37 38 39 40 41 42 43 44 45 46 47 48 49 50
000
ASUS45 KABQ 021401
RWRNM
NEW MEXICO REGIONAL WEATHER ROUNDUP
NATIONAL WEATHER SERVICE ALBUQUERQUE NM
800 AM MDT MON MAY 02 2016

NOTE: "FAIR" MEANS FEW OR NO CLOUDS BELOW 12,000 FEET AGL WITH NO
       SIGNIFICANT WEATHER OR OBSTRUCTIONS TO VISION.

      THIS PRODUCT IS RELEASED AS TWO VERSIONS.  ONE VERSION NEAR
      THE TOP OF THE HOUR CONTAINING PRELIMINARY DATA FROM ALBUQUERQUE
      AND OTHER STATIONS.  A FINAL VERSION WITH ADDITIONAL DATA IS
      ISSUED ABOUT 10 MINUTES AFTER THE HOUR.

NMZ501-503-504-510>518-021500-
NORTHWEST PLATEAU/NORTHCENTRAL MOUNTAINS

CITY           SKY/WX    TMP DP  RH WIND       PRES   REMARKS
FARMINGTON     FAIR      40  34  79 E8        30.27R WCI  34
SANTA FE       CLOUDY    36  30  79 SE8       30.29R WCI  30
TAOS           CLOUDY    34  27  75 NW5       30.31R WCI  30
ANGEL FIRE     CLOUDY    28  24  86 NE9       30.29R WCI  19

$$
NMZ402-403-502-505>509-021500-
WESTCENTRAL MOUNTAINS/SOUTHWEST MOUNTAINS

CITY           SKY/WX    TMP DP  RH WIND       PRES   REMARKS
GALLUP         FAIR      36  31  82 NE8       30.26R WCI  30
GRANTS         CLOUDY    36  35  94 S12       30.29R WCI  28
SILVER CITY      N/A     39  32  75 CALM      30.27R

$$
NMZ407-409-411-412-021500-
SOUTHERN DESERTS

CITY           SKY/WX    TMP DP  RH WIND       PRES   REMARKS
LORDSBURG      FAIR      45  32  61 SE22G28   30.21R
DEMING         FAIR      46  34  62 E12       30.26R
HOLLOMAN AFB   FAIR      45  33  62 S9        30.26R
ALAMOGORDO     FAIR      45  32  61 S6        30.28R
T OR C         LGT RAIN  44  32  62 N14       30.26R

$$
NMZ519>523-021500-
CENTRAL VALLEYS/CENTRAL HIGHLANDS

CITY           SKY/WX    TMP DP  RH WIND       PRES   REMARKS
ALBUQUERQUE    FAIR      42  33  70 NE7       30.29R
DOUBLE EAGLE   PTSUNNY   39  32  75 CALM      30.30R
MORIARTY ARPT  CLOUDY    36  29  73 S8        30.32R WCI  30
CLINES CORNERS FOG       29  27  92 CALM      30.27S VSB 1/2
BELEN          CLOUDY    40  37  86 SW6       30.31R
SOCORRO        NOT AVBL

$$
NMZ524>526-539-540-021500-
SOUTHCENTRAL MOUNTAINS

CITY           SKY/WX    TMP DP  RH WIND       PRES   REMARKS
RUIDOSO        NOT AVBL

$$
NMZ527>531-021500-
NORTHEAST HIGHLANDS/NORTHEAST PLAINS

CITY           SKY/WX    TMP DP  RH WIND       PRES   REMARKS
LAS VEGAS      FAIR      33  29  85 SW7       30.28S WCI  27
RATON          FAIR      32  27  81 E5        30.27R WCI  27
CLAYTON        FAIR      40  33  76 NW10      30.27R WCI  33

$$
NMZ532>537-021500-
EASTCENTRAL PLAINS

CITY           SKY/WX    TMP DP  RH WIND       PRES   REMARKS
TUCUMCARI      FAIR      41  36  82 W7        30.30R
CANNON AFB     FAIR      42  36  78 N12       30.29R
CLOVIS AIRPORT FAIR      43  34  70 N10       30.30R

$$
NMZ028-029-538-021500-
SOUTHEAST PLAINS

CITY           SKY/WX    TMP DP  RH WIND       PRES   REMARKS
ROSWELL        FAIR      45  34  65 N13       30.32R
ARTESIA        CLOUDY    46  36  66 N14       30.32R
CARLSBAD       CLOUDY    47  35  63 N13       30.31R
HOBBS          MOSUNNY   45  36  70 N10       30.31R


$$




USA.gov is the U.S. government's official web portal to all federal, state and local government web resources and services.